Location: El Hornillo
(40.2499°N, 5.1036°W)
Time: 10:00:26
(UTC+00:00)

Timation 1 Rocket - Pass Details

Date: 05 August 2024
Orbit: 895 x 910 km, 70.0° (Epoch: 14 September)

Event Time Altitude Azimuth Distance (km) Brightness Sun altitude
Rises 20:18:32 0° 334° (NNW) 3,542 8.5 -9.1°
Reaches altitude 10° 20:21:02 10° 335° (NNW) 2,599 7.7 -9.5°
Maximum altitude 20:27:04 87° 248° (WSW) 916 4.4 -10.5°
Drops below altitude 10° 20:33:04 10° 159° (SSE) 2,586 6.2 -11.5°
Enters shadow 20:33:24 - 159° (SSE) 2,716 6.3 -11.5°
